Simultaneous Nadir Overpasses (SNOs) Predictions

Prediction of SNOs between METOP-A and NOAA-19 Satellite Orbit:

Table of predicted SNOs for the next 14.0 days since TLE Epoch: 8/10/2018
Index Date (METOP-A) Time (METOP-A) Lat,Lon (METOP-A) SZA (METOP-A ) Date (NOAA-19) Time (NOAA-19) Lat,Lon (NOAA-19) SZA (NOAA-19 ) Distance(km) Time Diff (sec)
1 08/15/2018 04:07:53 78.88, 127.91 64.88 08/15/2018 04:06:41 78.87, 126.68 64.83 26.44 72
2 08/15/2018 04:58:37 -78.79, -65.32 115.22 08/15/2018 04:57:33 -78.78, -65.34 115.24 1.41 64
3 08/15/2018 05:49:17 78.78, 101.96 64.79 08/15/2018 05:48:39 78.77, 101.95 64.77 1.43 38
4 08/15/2018 06:39:59 -78.77, -90.79 115.22 08/15/2018 06:39:34 -78.77, -90.82 115.22 0.80 25
5 08/15/2018 07:30:39 78.76, 76.49 64.78 08/15/2018 07:30:40 78.76, 76.47 64.79 0.69 1
6 08/15/2018 08:21:21 -78.75,-116.26 115.22 08/15/2018 08:21:35 -78.77,-116.29 115.20 2.72 14
7 08/15/2018 09:12:01 78.74, 51.02 64.78 08/15/2018 09:12:41 78.76, 50.99 64.81 2.70 40
8 08/15/2018 10:02:42 -78.76,-141.50 115.18 08/15/2018 10:03:35 -78.73,-141.53 115.21 3.40 53
9 08/15/2018 10:53:28 78.52, 24.39 64.56 08/15/2018 10:54:36 78.55, 26.98 64.67 57.19 68




NCC Satellite Simultaneous Nadir Overpasses (SNOs) Prediction Service
